Wind_Speed
35 34 34 34 32 32 33 34 32 31 31 32 35 38 38 37 35 35 36 37 38 38 39 40 40 40 40
38 36 35 35 35 34 33 33 33 33 31 31 32 33 36 38 39 39 39 38 37 37 37 38 39 40 41
42 40 38 34 35 35 35 35 35 35 35 34 33 34 35 36 37 37 38 39 40 41 41 42 43 44 44
45 42 40 36 38 38 36 35 36 36 36 37 38 37 37 38 39 40 41 42 42 43 44 45 46 47 48
44 43 39 37 38 39 40 40 38 37 37 37 38 39 39 40 41 43 45 46 48 48 49 50 51 52 53
42 41 38 38 38 38 39 40 43 40 42 40 39 40 39 38 39 41 43 45 47 48 49 50 51 52 53
41 39 39 37 38 37 38 40 41 40 42 45 42 41 34 35 34 36 39 40 41 42 42 41 42 43 44
39 39 38 36 36 38 39 41 41 40 40 45 40 35 32 31 31 33 34 35 36 37 38 38 36 35 34
37 37 36 36 35 37 39 41 43 42 38 41 35 34 32 31 29 29 30 31 33 34 36 36 37 36 36
35 34 35 34 34 36 39 42 42 43 37 37 34 31 30 29 27 26 26 27 31 32 32 32 33 34 33
34 33 33 34 35 37 39 39 39 38 37 33 32 30 29 29 26 23 22 24 28 29 28 27 28 28 28
36 33 34 35 36 37 35 34 35 36 32 28 31 28 28 26 25 21 18 21 25 25 24 24 23 23 24
36 36 36 36 34 32 32 32 31 27 24 24 25 25 26 26 24 23 20 18 22 22 23 21 21 22 25
34 33 32 29 29 30 30 26 25 19 20 20 21 23 24 22 21 18 16 18 16 19 20 20 22 24 26
28 28 28 28 27 25 23 20 19 18 16 16 17 18 17 16 16 17 17 18 19 19 20 22 25 26 27
26 27 26 24 21 16 15 15 16 16 14 12 13 14 15 15 17 17 18 18 18 20 23 25 25 26 26
24 21 18 15 12 11 12 13 13 12 10 10 9 9 11 13 14 13 15 17 19 22 24 24 23 22 20
Wind_Direction
301 301 299 297 295 293 292 290 289 285 278 272 272 274 274 273 272 269 266 265 264 263 261 261 260 258 256
303 301 300 299 299 296 292 291 290 288 286 282 277 271 268 266 265 266 267 267 265 264 264 261 261 260 258
302 300 299 298 294 294 293 292 290 290 288 284 282 279 276 273 269 267 265 264 261 261 260 259 258 258 258
299 297 297 296 294 293 288 288 288 286 285 286 285 282 279 276 275 274 272 268 265 265 264 262 261 261 260
292 292 293 292 291 291 291 291 289 288 287 286 285 282 280 279 277 273 271 270 269 268 267 265 263 261 259
288 290 293 293 293 293 294 295 294 294 295 290 289 286 284 278 273 273 273 273 271 268 266 264 263 261 259
285 287 289 292 291 293 293 293 293 296 297 293 292 288 284 275 271 269 270 269 269 269 269 267 263 262 260
282 286 289 291 290 290 290 292 294 298 299 295 294 290 281 276 273 271 269 266 267 268 268 269 269 265 261
280 283 285 286 286 290 294 294 296 296 295 291 291 285 279 278 277 274 270 268 266 264 263 265 266 265 262
279 281 282 282 284 287 290 291 294 295 295 291 290 287 282 277 278 273 267 263 264 266 264 263 263 263 265
284 283 282 282 285 287 288 290 291 291 292 290 289 288 284 283 278 271 264 261 262 264 266 265 266 265 263
287 287 287 287 287 288 288 287 288 288 288 285 283 284 282 279 276 271 269 264 264 265 266 267 259 255 262
282 287 287 288 290 289 288 289 286 284 282 280 279 279 278 279 280 277 273 255 264 266 264 258 258 264 269
284 285 288 290 291 293 292 289 285 283 281 278 278 279 280 280 277 278 269 267 272 267 258 257 264 270 272
291 293 294 294 295 292 290 287 287 288 285 281 279 278 279 277 273 277 271 272 274 267 265 265 271 274 277
294 295 296 295 292 286 286 288 290 292 293 288 284 280 276 275 276 273 272 272 269 264 267 271 275 275 274
299 298 297 295 290 290 293 294 295 295 292 294 292 291 292 291 288 282 276 273 271 271 274 276 276 271 270
Height
3007 3004 3001 2997 2996 2993 2991 2989 2988 2987 2986 2985 2984 2985 2985 2984 2984 2985 2986 2987 2988 2990 2991 2994 2996 2998 3001
2998 2994 2992 2988 2986 2984 2982 2980 2978 2977 2976 2975 2974 2973 2973 2973 2973 2973 2974 2975 2977 2978 2980 2981 2983 2985 2987
2986 2984 2981 2979 2977 2974 2972 2971 2968 2967 2966 2965 2963 2962 2961 2961 2961 2961 2962 2962 2963 2964 2966 2968 2970 2972 2974
2973 2971 2970 2969 2965 2963 2963 2961 2959 2957 2955 2952 2951 2951 2951 2949 2949 2948 2948 2949 2950 2951 2953 2955 2956 2958 2960
2963 2960 2959 2957 2954 2951 2948 2947 2947 2947 2945 2943 2939 2938 2937 2935 2934 2933 2934 2934 2935 2936 2938 2940 2942 2943 2945
2952 2949 2947 2944 2942 2939 2936 2934 2932 2933 2930 2931 2928 2925 2924 2922 2920 2918 2917 2917 2918 2920 2921 2922 2924 2926 2928
2939 2938 2935 2934 2930 2928 2926 2923 2921 2921 2917 2913 2913 2912 2912 2908 2907 2906 2904 2903 2903 2903 2905 2908 2910 2912 2914
2927 2926 2924 2923 2920 2917 2915 2912 2910 2910 2907 2899 2901 2899 2897 2896 2896 2895 2893 2892 2892 2892 2893 2894 2897 2899 2902
2917 2916 2914 2912 2910 2906 2904 2899 2897 2898 2897 2889 2890 2886 2886 2885 2884 2883 2882 2882 2882 2882 2884 2885 2885 2887 2888
2907 2905 2903 2901 2900 2896 2893 2888 2886 2883 2883 2880 2877 2876 2875 2874 2874 2873 2873 2872 2871 2872 2873 2874 2875 2876 2878
2894 2893 2892 2891 2889 2886 2882 2878 2875 2873 2871 2869 2867 2866 2865 2863 2863 2864 2863 2863 2862 2862 2864 2864 2865 2866 2867
2883 2881 2880 2878 2876 2873 2871 2868 2865 2862 2861 2860 2857 2857 2855 2854 2854 2855 2856 2855 2854 2854 2855 2856 2857 2858 2859
2872 2870 2868 2866 2863 2861 2859 2857 2854 2853 2852 2851 2849 2848 2847 2846 2846 2846 2847 2848 2847 2848 2848 2848 2849 2850 2851
2861 2859 2857 2855 2853 2851 2848 2847 2845 2846 2844 2843 2842 2841 2839 2839 2838 2839 2840 2839 2841 2840 2841 2843 2843 2843 2842
2851 2849 2847 2846 2844 2842 2840 2839 2838 2838 2838 2837 2836 2834 2834 2833 2833 2833 2833 2834 2834 2834 2835 2836 2836 2834 2833
2843 2841 2839 2837 2836 2835 2834 2833 2833 2832 2832 2831 2830 2829 2829 2829 2828 2828 2828 2828 2827 2828 2828 2827 2828 2825 2824
2835 2834 2832 2831 2830 2830 2830 2829 2828 2828 2827 2827 2826 2825 2825 2824 2824 2823 2822 2822 2822 2821 2820 2819 2819 2818 2816